Regional Weather Roundup
Issued by NWS

Home | Current Version | Previous Version | Text Only | Print | Product List | Glossary Off
Versions: 1 2 3 4 5 6 7 8 9 10 11 12 13 14 15 16 17 18 19 20 21 22 23 24 25 26 27 28 29 30 31 32 33 34 35 36 37 38 39 40 41 42 43 44 45 46 47 48 49 50

180
ASUS44 KMEG 180500
RWRTN
TENNESSEE HOURLY STATE WEATHER ROUNDUP
NATIONAL WEATHER SERVICE MEMPHIS TN
1100 PM CST FRI NOV 17 2017

TNZ002-004-019-021-049-052-054-088>092-180600-
WEST TENNESSEE

CITY           SKY/WX    TMP DP  RH WIND       PRES   REMARKS
MEMPHIS INTL   CLOUDY    69  55  60 S18G30    29.80F
NWS MEMPHIS      N/A     68 N/A N/A MISG        N/A
JACKSON        CLOUDY    64  56  75 S12G28    29.81F
DYERSBURG      CLOUDY    66  56  70 S13G23    29.76F
$$

TNZ008-025-027-028-033-062-065-066-180600-
NORTH MIDDLE TENNESSEE

CITY           SKY/WX    TMP DP  RH WIND       PRES   REMARKS
NASHVILLE      MOCLDY    60  35  39 S18       29.89F
CLARKSVILLE    CLOUDY    62  44  51 S13G21    29.83F
SMYRNA         CLEAR     59  36  42 S8        29.91F
CROSSVILLE     CLOUDY    54  38  54 S14G22    29.97F
$$

TNZ061-075-076-078-094-096-097-180600-
SOUTH MIDDLE TENNESSEE

CITY           SKY/WX    TMP DP  RH WIND       PRES   REMARKS
WINCHESTER     CLEAR     55  36  47 S15       29.96S
$$

TNZ017-018-042-046-047-180600-
NORTHEAST TENNESSEE

CITY           SKY/WX    TMP DP  RH WIND       PRES   REMARKS
TRI CITIES     MOCLDY    38  33  82 CALM      30.01F
$$

TNZ012-013-036-069-073-074-180600-
CENTRAL EAST TENNESSEE

CITY           SKY/WX    TMP DP  RH WIND       PRES   REMARKS
KNOXVILLE      CLOUDY    45  43  93 E6        29.99F
OAK RIDGE      PTCLDY    55  39  54 VRB3      30.01F
$$

TNZ083-085-099-180600-
SOUTHEAST TENNESSEE

CITY           SKY/WX    TMP DP  RH WIND       PRES   REMARKS
CHATTANOOGA    PTCLDY    49  41  74 CALM      30.02F
$$

SKY/WX REPORTED AS FAIR MEANS FEW OR NO CLOUDS BELOW
12 THOUSAND FEET.





USA.gov is the U.S. government's official web portal to all federal, state and local government web resources and services.